This is the latest recevied weather packets stored in our database for station/object K5RWS. If no packets are shown the sender has not sent any weather packets the latest 1 day(s).
| Time | Temp. | Humidity | Pressure | Rain* | Wind** | Luminosity | Snow |
|---|---|---|---|---|---|---|---|
| 1836274784 | 16.11° C | 81% | 1024.1 hPa | 0 mm | 2.24 m/s, 231° | 0 W/m² | - |
| 1836274483 | 16.11° C | 81% | 1024.3 hPa | 0 mm | 1.79 m/s, 224° | 0 W/m² | - |
| 1836274336 | 16.11° C | 80% | 1024.4 hPa | 0 mm | 2.24 m/s, 245° | 0 W/m² | - |
| 1836274180 | 16.11° C | 81% | 1024.1 hPa | 0 mm | 1.34 m/s, 234° | 0 W/m² | - |
| 1836273881 | 16.11° C | 82% | 1023.8 hPa | 0 mm | 2.68 m/s, 234° | 0 W/m² | - |
| 1778057141 | 6.11° C | 70% | 1016.2 hPa | 0 mm | 0.89 m/s, 223° | 0 W/m² | - |
| 1778056837 | 6.11° C | 71% | 1016.1 hPa | 0 mm | 0.89 m/s, 269° | 0 W/m² | - |
| 1778056535 | 6.11° C | 71% | 1016.3 hPa | 0 mm | 0 m/s | 0 W/m² | - |
| 1778056232 | 6.11° C | 71% | 1016.6 hPa | 0 mm | 0.89 m/s, 287° | 0 W/m² | - |
| 1778055928 | 6.11° C | 70% | 1016.3 hPa | 0 mm | 0.45 m/s, 288° | 0 W/m² | - |
| 1778055624 | 6.67° C | 70% | 1016.3 hPa | 0 mm | 0.89 m/s, 260° | 0 W/m² | - |
| 1778055323 | 6.11° C | 70% | 1016.4 hPa | 0 mm | 1.34 m/s, 272° | 0 W/m² | - |
| 1778055020 | 6.11° C | 70% | 1016.6 hPa | 0 mm | 0.89 m/s, 285° | 0 W/m² | - |
| 1778054717 | 6.67° C | 69% | 1016.4 hPa | 0 mm | 1.34 m/s, 292° | 0 W/m² | - |
| 1778054414 | 6.67° C | 69% | 1016.2 hPa | 0 mm | 0.89 m/s, 284° | 0 W/m² | - |
| 1778054112 | 6.67° C | 68% | 1016.7 hPa | 0 mm | 0.45 m/s, 283° | 0 W/m² | - |
| 1778053808 | 6.67° C | 69% | 1016.7 hPa | 0 mm | 0.89 m/s, 258° | 0 W/m² | - |
| 1778053506 | 6.67° C | 69% | 1016.7 hPa | 0 mm | 0 m/s | 0 W/m² | - |
| 1778053203 | 6.67° C | 68% | 1016.6 hPa | 0 mm | 0 m/s | 0 W/m² | - |
| 1778052900 | 7.22° C | 68% | 1016.4 hPa | 0 mm | 0.45 m/s, 236° | 0 W/m² | - |
| 1778052598 | 7.22° C | 68% | 1016.6 hPa | 0 mm | 1.34 m/s, 270° | 0 W/m² | - |
| 1778052295 | 7.22° C | 67% | 1016.7 hPa | 0 mm | 0.45 m/s, 278° | 0 W/m² | - |
| 1778051993 | 7.22° C | 66% | 1016.6 hPa | 0 mm | 0.89 m/s, 276° | 0 W/m² | - |
| 1778051690 | 7.22° C | 65% | 1016.3 hPa | 0 mm | 0.45 m/s, 260° | 0 W/m² | - |
| 1778051387 | 7.78° C | 64% | 1016.6 hPa | 0 mm | 0 m/s | 0 W/m² | - |
* Rain latest hour (hover to see other rain measurements)
** Current wind speed in m/s (hover to see current wind gust speed)